Date,TemperatureHighF,TemperatureAvgF,TemperatureLowF,DewpointHighF,DewpointAvgF,DewpointLowF,HumidityHigh,HumidityAvg,HumidityLow,PressureMaxIn,PressureMinIn,WindSpeedMaxMPH,WindSpeedAvgMPH,GustSpeedMaxMPH,PrecipitationSumIn
2013-3-1,44.1,37.2,34.0,36.3,33.8,31.5,96,88,67,29.92,29.51,5,1,16,0.00
2013-3-2,49.5,37.7,33.4,31.6,29.7,27.3,91,73,48,29.93,29.87,4,1,10,0.00
2013-3-3,47.8,36.7,32.5,33.4,28.8,26.4,92,73,50,29.89,29.81,4,1,8,0.00
2013-3-4,45.5,36.3,29.5,30.9,25.5,21.8,94,66,44,29.95,29.81,8,3,14,0.00
2013-3-5,43.0,35.9,27.5,36.1,28.7,23.3,96,76,59,30.31,29.95,9,2,17,0.00
2013-3-6,46.4,39.8,30.7,40.9,36.2,29.5,95,89,77,30.32,30.19,19,5,32,0.06
2013-3-7,38.3,35.1,31.5,37.0,33.8,30.7,97,95,89,30.20,30.12,24,17,41,1.24
2013-3-8,42.1,35.3,32.4,38.9,33.3,30.4,99,93,69,30.32,30.10,21,12,31,0.35
2013-3-9,42.1,37.0,33.8,34.1,30.9,29.2,91,78,69,30.45,29.92,20,10,26,0.00
2013-3-10,41.4,35.8,28.2,32.8,30.6,25.4,93,82,69,30.12,30.03,14,5,14,0.00
2013-3-11,51.8,41.2,30.6,42.4,37.2,28.8,95,86,67,30.06,29.90,8,4,13,0.00
2013-3-12,55.9,50.6,43.7,54.3,48.4,42.0,99,92,81,29.91,29.48,10,6,18,0.80
2013-3-13,57.7,50.7,28.6,53.6,40.1,22.1,99,69,35,29.51,29.40,7,3,11,0.17
2013-3-14,28.6,26.4,24.1,23.0,14.4,4.9,87,63,42,29.55,29.48,11,4,14,0.00
2013-3-15,44.6,32.7,22.8,27.1,14.7,3.6,75,49,19,29.59,29.38,10,6,16,0.00
2013-3-16,43.3,33.7,24.1,27.3,20.6,7.1,89,61,22,29.59,29.41,6,2,11,0.00
2013-3-17,45.1,32.3,20.5,25.3,15.0,2.4,93,54,21,30.02,29.58,7,3,12,0.00
2013-3-18,40.3,30.4,19.6,28.0,14.6,3.0,88,52,37,30.17,29.96,6,3,11,0.00
2013-3-19,42.8,35.9,30.0,41.2,34.8,28.0,98,96,89,29.96,29.21,10,5,20,0.43
2013-3-20,45.9,34.1,25.2,30.8,21.7,16.9,94,64,35,29.55,29.38,10,3,16,0.01
2013-3-21,30.6,28.1,24.4,29.9,26.6,21.7,98,94,88,29.55,29.31,5,1,8,0.00
2013-3-22,46.8,34.9,26.4,35.5,24.6,16.7,98,70,32,29.47,29.31,7,2,11,0.00
2013-3-23,46.8,36.5,26.6,26.1,20.1,16.1,79,53,31,29.50,29.36,11,6,17,0.00
2013-3-24,50.5,37.7,26.8,29.1,23.8,19.2,88,59,33,29.55,29.46,10,3,15,0.00
2013-3-25,50.4,37.2,27.0,37.3,30.3,24.3,95,77,47,29.49,29.18,15,6,23,0.00
2013-3-26,52.5,40.6,28.6,36.4,28.6,21.7,96,66,30,29.49,29.18,14,5,22,0.02
2013-3-27,57.9,41.4,22.8,35.4,25.5,18.9,90,59,23,29.57,29.45,7,3,14,0.00
2013-3-28,52.2,42.6,37.2,39.7,34.4,27.6,97,76,42,29.74,29.56,12,4,17,0.05
2013-3-29,62.2,43.8,27.1,40.0,34.0,25.7,97,71,35,29.77,29.70,6,2,10,0.00
2013-3-30,58.1,44.7,29.7,38.7,31.8,26.0,89,64,29,29.82,29.75,7,2,11,0.00
2013-3-31,48.9,39.1,26.1,44.3,35.2,24.8,97,70,28,29.85,29.48,9,3,15,0.05